Flag for U.S.A. Weather past 2 weeks in Tulsa, Oklahoma, U.S.A.

Now
92 °F

More clouds than sun.


Feels Like: 102 °F
Forecast: 76 / 94 °F
Wind: 7 mph from North

Location: Tulsa International Airport

Current Time: Jul 2, 2015 at 5:35:52 PM

Latest Report: Jul 2, 2015 at 3:53 PM


Visibility: 10 mi

Pressure: 29.82 "Hg

Humidity: 56%

Dew point: 74 °F

Location of TulsaLocation

Historic Weather in Tulsa — Graph

°F

Tulsa temperature yesterday

Maximum temperature yesterday: 96 °F (at 3:53 PM)
Minimum temperature yesterday: 79 °F (at 6:53 AM)
Average temperature yesterday: 87 °F

Past Weeks' High & Low Weather Summary

 TemperatureHumidityPressure
High97 °F (Jun 30, 4:53 PM)100% (Jun 18, 4:53 AM)30.09 "Hg (Jun 18, 4:53 AM)
Low68 °F (Jun 27, 5:53 AM)34% (Jun 30, 4:53 PM)29.76 "Hg (Jul 2, 3:53 AM)
Average83 °F67%29.92 "Hg
* Reported Jun 17 3:53 PM — Jul 2 3:53 PM, Tulsa, Weather by CustomWeather, © 2015

Note: Actual official high and low records may vary slightly from our data, if they occured in-between our weather recording intervals... More about our weather records

Advertising

Tulsa weather history for previous 24 hours

 ConditionsComfort  
Time TempWeatherWind HumidityBarometerVisibility
3:53 PM
Thu, Jul 2
92 °FMore clouds than sun.7 mph56%29.82 "Hg10 mi
2:53 PM91 °FCloudy.7 mph56%29.83 "Hg10 mi
1:53 PM92 °FMostly cloudy.6 mph54%29.83 "Hg10 mi
12:53 PM90 °FMostly cloudy.5 mph57%29.84 "Hg10 mi
11:53 AM91 °FPartly sunny.7 mph56%29.83 "Hg10 mi
10:53 AM89 °FBroken clouds.12 mph57%29.83 "Hg10 mi
9:53 AM86 °FPartly sunny.9 mph61%29.82 "Hg10 mi
8:53 AM83 °FHigh level clouds.17 mph65%29.80 "Hg10 mi
7:53 AM82 °FOvercast.15 mph70%29.80 "Hg10 mi
6:53 AM80 °FPassing clouds.13 mph71%29.79 "Hg10 mi
5:53 AM81 °FPassing clouds.9 mph69%29.80 "Hg10 mi
4:53 AM82 °FPassing clouds.13 mph67%29.78 "Hg10 mi
3:53 AM82 °FPassing clouds.13 mph67%29.76 "Hg10 mi
2:53 AM83 °FPassing clouds.14 mph65%29.78 "Hg10 mi
1:53 AM85 °FPassing clouds.12 mph61%29.80 "Hg10 mi
12:53 AM85 °FPassing clouds.13 mph63%29.79 "Hg10 mi
11:53 PM
Wed, Jul 1
85 °FPartly cloudy.16 mph65%29.78 "Hg10 mi
10:53 PM86 °FPartly cloudy.18 mph65%29.79 "Hg10 mi
9:53 PM87 °FPassing clouds.22 mph63%29.79 "Hg10 mi
8:53 PM88 °FPartly sunny.16 mph63%29.79 "Hg10 mi
7:53 PM90 °FPartly sunny.14 mph59%29.79 "Hg10 mi
6:53 PM91 °FPartly sunny.14 mph57%29.79 "Hg10 mi
5:53 PM94 °FBroken clouds.13 mph51%29.80 "Hg10 mi
Weather by CustomWeather, © 2015

See weather overviewHow to use our weather pages